This demonstration page uses our WeatherBlox Daily Observations layout. Learn more.

Hourly Observations for August 26, 2016

Temp ( °F °C ) Dew Point ( °F °C ) Humidity (%) Winds ( mph kmh ) Pressure ( in mb ) Visibility ( mi km ) Precip ( " mm )
12:54 am 00:54 Clear 60 15.6 58 14.4 93 93 N 5 7 30.15 1021 10 16.0934 0 0
1:54 am 01:54 Clear 60 15.6 58 14.4 93 93 N 5 7 30.14 1021 10 16.0934 0 0
2:54 am 02:54 Clear 58 14.4 56 13.3 93 93 NNW 5 7 30.13 1020 10 16.0934 0 0
3:54 am 03:54 Clear 60 15.6 57 13.9 90 90 Calm 30.13 1020 10 16.0934 0 0
4:54 am 04:54 Clear 59 15 56 13.3 90 90 N 3 6 30.13 1020 10 16.0934 0 0
5:54 am 05:54 Clear 59 15 57 13.9 93 93 N 6 9 30.14 1021 10 16.0934 0 0
6:54 am 06:54 Mostly Cloudy 61 16.1 58 14.4 90 90 NNW 3 6 30.15 1021 10 16.0934 0 0
7:54 am 07:54 Cloudy 62 16.7 59 15 90 90 N 3 6 30.15 1021 10 16.0934 0 0
8:54 am 08:54 Sunny 64 17.8 59 15 84 84 E 9 15 30.13 1020 10 16.0934 0 0
9:54 am 09:54 Partly Cloudy 67 19.4 60 15.6 79 79 ENE 8 13 30.12 1020 10 16.0934 0 0
10:54 am 10:54 Mostly Sunny 69 20.6 61 16.1 76 76 NE 9 15 30.1 1019 10 16.0934 0 0
11:54 am 11:54 Cloudy 68 20 60 15.6 76 76 SE 14 22 30.12 1020 10 16.0934 0 0
12:28 pm 12:28 Cloudy 68 20 61 16 78 78 ESE 14 22 30.09 1019 10 16.0934 0 0
12:54 pm 12:54 Cloudy 68 20 61 16.1 78 78 ESE 8 13 30.11 1020 10 16.0934 0 0
1:52 pm 13:52 Cloudy 68 20 61 16 78 78 ESE 10 17 30.09 1019 10 16.0934 0 0
1:54 pm 13:54 Cloudy 68 20 61 16 78 78 ESE 10 17 30.09 1019 10 16.0934 0 0
2:54 pm 14:54 Cloudy 68 20 63 17.2 84 84 E 6 9 30.08 1019 10 16.0934 0 0
3:54 pm 15:54 Cloudy 69 20.6 64 17.8 84 84 E 5 7 30.06 1018 10 16.0934 0 0.0254
4:54 pm 16:54 Cloudy 70 21.1 64 17.8 82 82 ENE 7 11 30.04 1017 10 16.0934 0 0
5:54 pm 17:54 Cloudy 69 20.6 65 18.3 87 87 NE 8 13 30.02 1017 10 16.0934 0 0
6:35 pm 18:35 Cloudy 70 21.1 65 18.3 84 84 NE 8 13 30 1016 10 16.0934 0 0
6:54 pm 18:54 Cloudy 70 21.1 65 18.3 84 84 NE 10 17 30.01 1016 10 16.0934 0 0
7:45 pm 19:45 Cloudy 69 20.6 65 18.3 87 87 NE 6 9 30.03 1017 10 16.0934 0 0
7:54 pm 19:54 Cloudy 69 20.6 65 18.3 87 87 E 7 11 30.03 1017 10 16.0934 0 0
8:54 pm 20:54 Cloudy with Light Rain 69 20.6 65 18.3 87 87 ENE 8 13 30.04 1017 10 16.0934 0 0.0254
9:37 pm 21:37 Cloudy 67 19.4 65 18.3 93 93 NE 5 7 30.03 1017 10 16.0934 0 0.0254
9:54 pm 21:54 Cloudy 67 19.4 65 18.3 93 93 NNE 3 6 30.04 1017 10 16.0934 0 0.0254
10:52 pm 22:52 Cloudy 68 20 64 18 88 88 E 7 11 30.03 1017 10 16.0934 0 0
10:54 pm 22:54 Cloudy 68 20 65 18.3 90 90 E 7 11 30.03 1017 10 16.0934 0 0
11:20 pm 23:20 Cloudy 68 20 65 18.3 90 90 ESE 7 11 30.03 1017 10 16.0934 0 0
11:54 pm 23:54 Cloudy 68 20 65 18.3 90 90 E 5 7 30.02 1017 10 16.0934 0 0

Powered by AerisWeather